Location: Newark
(7.0858°N, 171.3717°E)
Time: 05:48:16
(UTC+00:00)

Courier 1B Rocket - Pass Details

Date: 27 November 2020
Orbit: 920 x 1202 km, 28.2° (Epoch: 20 January)

Event Time Altitude Azimuth Distance (km) Brightness Sun altitude
Rises 00:58:19 0° 307° (NW) 3,824 8.0 60.4°
Reaches altitude 10° 01:01:13 10° 313° (NW) 2,825 7.4 60.2°
Maximum altitude 01:07:47 48° 26° (NNE) 1,256 5.9 59.6°
Drops below altitude 10° 01:13:56 10° 100° (E) 2,657 7.3 59.0°
Sets 01:16:36 0° 105° (ESE) 3,578 7.9 58.7°
